Location: Newark
(40.3500°N, 15.2333°E)
Time: 21:14:32
(UTC+00:00)

Altair - Pass Details

Date: 26 January 2020
Orbit: 1502 x 1682 km, 47.2° (Epoch: 19 February)

Event Time Altitude Azimuth Distance (km) Brightness Sun altitude
Rises 15:43:51 0° 291° (WNW) 4,914 10.8 3.5°
Reaches altitude 10° 15:48:23 10° 274° (W) 3,900 10.8 2.8°
Maximum altitude 15:54:21 18° 237° (WSW) 3,266 11.1 1.8°
Drops below altitude 10° 16:00:14 10° 199° (SSW) 3,808 10.3 0.7°
Sets 16:04:38 0° 181° (S) 4,754 10.5 0.0°
